マクノート彗星

254P/McNaught (2020)

English version
Home page
Updated on September 18, 2021

---------------------------------------------------------------------

・ プロフィール

・ 写真集

・ 軌道要素

Epoch 2020 Sept. 28.0 TT = JDT 2459120.5                                        
T 2020 Sept. 29.67863 TT                                Rudenko                 
q   3.1369868            (2000.0)            P               Q                  
n   0.09945274     Peri.  219.48339     +0.90293728     +0.10255998             
a   4.6137942      Node   129.17432     -0.10223624     +0.99448961             
e   0.3200852      Incl.   32.57242     -0.41743504     -0.02172230             
P   9.91                                                                        
From 287 observations 1980 Oct. 5-2021 Feb. 2, mean residual 0".6.              

・ 光度変化

        m1 = 4.5 + 5 logΔ + 20.0 log r(t - 350)

---------------------------------------------------------------------

軌道要素はM.P.E.C. 2021-F20に掲載されたものです。
光度グラフはComet for Windowsで作成したものです。

---------------------------------------------------------------------

Copyright(C) Seiichi Yoshida (comet@aerith.net). All rights reserved.